Flag for South Africa Weather past 2 weeks in Bloemfontein, South Africa

Now
72 °F

Passing clouds.


Feels Like: 75 °F
Forecast: 39 / 73 °F
Wind: 10 mph from Northwest

Location: Bloemfontein Airport

Current Time: May 26, 2015 at 12:31:34 PM

Latest Report: May 26, 2015 at 12:00 PM


Visibility: N/A

Pressure: 30.21 "Hg

Humidity: 23%

Dew point: 32 °F

Location of BloemfonteinLocation

Historic Weather in Bloemfontein — Graph

°F

Bloemfontein temperature yesterday

Maximum temperature yesterday: 75 °F (at 2:00 PM)
Minimum temperature yesterday: 37 °F (at 7:00 AM)
Average temperature yesterday: 55 °F

Past Weeks' High & Low Weather Summary

 TemperatureHumidityPressure
High79 °F (May 18, 2:00 PM)93% (May 12, 6:00 AM)30.48 "Hg (May 12, 6:00 AM)
Low36 °F (May 13, 7:00 AM)10% (May 15, 2:00 PM)30.09 "Hg (May 13, 3:00 PM)
Average56 °F50%30.26 "Hg
* Reported May 11 11:00 AM — May 26 11:00 AM, Bloemfontein, Weather by CustomWeather, © 2015

Note: Actual official high and low records may vary slightly from our data, if they occured in-between our weather recording intervals... More about our weather records

Advertising

Bloemfontein weather history for previous 24 hours

 ConditionsComfort  
Time TempWeatherWind HumidityBarometerVisibility
11:00 AM
Tue, May 26
68 °FSunny.3 mph26%30.24 "Hg10 mi
10:00 AM59 °FSunny.2 mph42%30.24 "Hg10 mi
9:00 AM52 °FSunny.1 mph54%30.24 "Hg10 mi
8:00 AM45 °FSunny.No wind66%30.24 "Hg10 mi
7:00 AM37 °FSunny.No wind87%30.18 "Hg10 mi
6:00 AM37 °FSunny.No wind81%30.18 "Hg10 mi
5:00 AM37 °FClear.No wind81%30.21 "Hg10 mi
4:00 AM39 °FChilly.2 mph75%30.18 "Hg4 mi
3:00 AM39 °FChilly.No wind81%30.18 "Hg4 mi
2:00 AM41 °FQuite cool.No wind70%30.21 "HgN/A
12:00 AM45 °FQuite cool.No wind71%30.18 "Hg4 mi
11:00 PM
Mon, May 25
45 °FQuite cool.No wind61%30.21 "HgN/A
10:00 PM50 °FCool.6 mph62%30.18 "Hg5 mi
9:00 PM50 °FCool.No wind54%30.18 "Hg6 mi
8:00 PM54 °FClear.No wind44%30.18 "Hg10 mi
7:00 PM59 °FClear.2 mph42%30.15 "Hg10 mi
6:00 PM68 °FClear.5 mph30%30.12 "Hg10 mi
5:00 PM72 °FClear.6 mph29%30.12 "Hg10 mi
4:00 PM73 °FPassing clouds.8 mph27%30.12 "HgN/A
3:00 PM73 °FPassing clouds.9 mph25%30.12 "HgN/A
2:00 PM75 °FSunny.6 mph21%30.15 "Hg10 mi
1:00 PM73 °FPassing clouds.8 mph27%30.15 "HgN/A
12:00 PM70 °FPassing clouds.8 mph31%30.18 "HgN/A
Weather by CustomWeather, © 2015

See weather overviewHow to use our weather pages